Weather History for KVSF - July, 2013

Change the Weather History Date:

Wednesday, July 3, 2013

  Actual Average Record
Temperature  
Mean Temperature 76 °F 68 °F  
Max Temperature 87 °F 80 °F 93 °F (2002)
Min Temperature 65 °F 56 °F 45 °F (2001)
Cooling Degree Days 11 4  
Month to date cooling degree days 28 12  
Year to date cooling degree days 141 88  
Since 1 June cooling degree days 117 76  
Growing Degree Days 26 (Base 50)    
Moisture  
Dew Point 67 °F    
Average Humidity 75    
Maximum Humidity 100    
Minimum Humidity 50    
Precipitation  
Precipitation 0.25 in 0.12 in 0.96 in (1997)
Month to date precipitation 2.03 0.36  
Year to date precipitation 20.14 20.52  
Sea Level Pressure  
Sea Level Pressure 30.17 in    
Wind  
Wind Speed 3 mph (SW)    
Max Wind Speed 12 mph    
Max Gust Speed 16 mph    
Visibility 9 miles    
Events Rain    
T = Trace of Precipitation, MM = Missing Value Source: NWS Daily Summary

Daily Weather History Graph

Daily Weather History Graph

Search for Another Location

Airport or City:

Trip Planner

Search our weather history database for the weather conditions in past years. The results will help you decide how hot, cold, wet, or windy it might be!

Date:

Astronomy

Jul. 03, 2013 Rise Set
Actual Time 5:14 AM EDT 8:33 PM EDT
Civil Twilight 4:39 AM EDT 9:09 PM EDT
Nautical Twilight 3:53 AM EDT 9:54 PM EDT
Astronomical Twilight 2:56 AM EDT 10:51 PM EDT
Moon 1:54 AM EDT (7/3) 4:38 PM EDT (7/3)
Length of Visible Light 16h 29m
Length of Day
15h 18m
Waning Crescent, 18% of the Moon is Illuminated
Jul 3
Waning Crescent
Jul 8
New
Jul 15
First Quarter
Jul 22
Full
Jul 29
Last Quarter

Hourly Weather History & Observations

Time (EDT) Temp. Heat Index Dew Point Humidity Pressure Visibility Wind Dir Wind Speed Gust Speed Precip Events Conditions
12:54 AM 64.9 °F - 64.0 °F 97% 30.18 in 10.0 mi Calm Calm - 0.00 in   Overcast
1:54 AM 64.9 °F - 64.0 °F 97% 30.16 in 10.0 mi Calm Calm - N/A   Overcast
2:13 AM 64.4 °F - 64.4 °F 100% 30.17 in 10.0 mi Calm Calm - N/A   Overcast
2:32 AM 64.4 °F - 64.4 °F 100% 30.16 in 10.0 mi Calm Calm - N/A   Overcast
2:54 AM 64.9 °F - 64.0 °F 97% 30.16 in 10.0 mi Calm Calm - N/A   Overcast
2:56 AM 64.4 °F - 64.4 °F 100% 30.16 in 10.0 mi Calm Calm - N/A   Overcast
3:54 AM 66.0 °F - 64.9 °F 96% 30.16 in 10.0 mi Calm Calm - N/A   Overcast
4:54 AM 64.9 °F - 64.0 °F 97% 30.16 in 6.0 mi Calm Calm - N/A   Overcast
5:22 AM 64.4 °F - 64.4 °F 100% 30.17 in 4.0 mi Calm Calm - 0.00 in Rain Light Rain
5:35 AM 64.4 °F - 64.4 °F 100% 30.17 in 1.8 mi Calm Calm - 0.06 in Rain Rain
5:44 AM 64.4 °F - 64.4 °F 100% 30.17 in 0.8 mi Calm Calm - 0.21 in Rain Heavy Rain
5:48 AM 64.4 °F - 64.4 °F 100% 30.17 in 2.0 mi Calm Calm - 0.22 in Rain Rain
5:54 AM 64.9 °F - 64.9 °F 100% 30.17 in 4.0 mi Calm Calm - 0.23 in Rain Light Rain
6:04 AM 64.4 °F - 64.4 °F 100% 30.18 in 3.0 mi Calm Calm - 0.02 in Rain Rain
6:40 AM 66.2 °F - 64.4 °F 94% 30.19 in 10.0 mi Calm Calm - 0.02 in   Overcast
6:54 AM 66.0 °F - 64.9 °F 96% 30.19 in 10.0 mi Calm Calm - 0.02 in   Overcast
7:06 AM 66.2 °F - 66.2 °F 100% 30.19 in 10.0 mi Calm Calm - N/A   Overcast
7:54 AM 69.1 °F - 66.9 °F 93% 30.19 in 10.0 mi Calm Calm - N/A   Overcast
8:30 AM 69.8 °F - 68.0 °F 94% 30.20 in 10.0 mi Calm Calm - N/A   Overcast
8:54 AM 71.1 °F - 69.1 °F 93% 30.19 in 10.0 mi Calm Calm - N/A   Overcast
9:21 AM 75.2 °F - 71.6 °F 89% 30.20 in 10.0 mi Calm Calm - N/A   Mostly Cloudy
9:54 AM 78.1 °F - 72.0 °F 81% 30.19 in 10.0 mi SSW 3.5 mph - N/A   Scattered Clouds
10:54 AM 79.0 °F - 71.1 °F 77% 30.19 in 10.0 mi Calm Calm - N/A   Overcast
11:54 AM 81.0 °F 84.1 °F 69.1 °F 67% 30.19 in 10.0 mi West 6.9 mph - N/A   Clear
12:54 PM 84.0 °F 87.0 °F 68.0 °F 58% 30.17 in 10.0 mi SW 8.1 mph - N/A   Partly Cloudy
1:54 PM 84.9 °F 87.6 °F 66.9 °F 55% 30.17 in 10.0 mi WSW 10.4 mph - N/A   Overcast
2:54 PM 86.0 °F 88.8 °F 66.9 °F 53% 30.15 in 10.0 mi Variable 6.9 mph - N/A   Partly Cloudy
3:54 PM 86.0 °F 88.8 °F 66.9 °F 53% 30.14 in 10.0 mi WSW 5.8 mph - N/A   Partly Cloudy
4:54 PM 87.1 °F 89.9 °F 66.9 °F 51% 30.13 in 10.0 mi SW 10.4 mph - N/A   Scattered Clouds
5:54 PM 84.9 °F 87.6 °F 66.9 °F 55% 30.12 in 10.0 mi SW 9.2 mph - N/A   Scattered Clouds
6:54 PM 84.0 °F 86.5 °F 66.9 °F 56% 30.12 in 10.0 mi SW 6.9 mph - N/A   Clear
7:54 PM 82.0 °F 84.9 °F 68.0 °F 62% 30.14 in 10.0 mi Calm Calm - N/A   Clear
8:54 PM 73.9 °F - 71.1 °F 91% 30.15 in 10.0 mi Calm Calm - N/A   Clear
9:54 PM 73.0 °F - 70.0 °F 90% 30.17 in 10.0 mi Calm Calm - N/A   Clear
10:54 PM 71.1 °F - 70.0 °F 96% 30.17 in 10.0 mi Calm Calm - N/A   Clear
11:54 PM 70.0 °F - 68.0 °F 93% 30.19 in 9.0 mi Calm Calm - N/A   Clear